Time,TemperatureF,DewpointF,PressureIn,WindDirection,WindDirectionDegrees,WindSpeedMPH,WindSpeedGustMPH,Humidity,HourlyPrecipIn,Conditions,Clouds,dailyrainin,SoftwareType,DateUTC
2013-03-16 00:03:00,42.0,34.0,-100.00,SE,141,0.0,12.0,77,2.83,,,-99.99,,2013-03-16 04:03:00,
2013-03-16 00:13:00,41.0,34.0,-100.00,West,266,0.0,12.0,80,1.14,,,-99.99,,2013-03-16 04:13:00,
2013-03-16 00:23:00,41.0,36.0,-100.00,SSE,166,0.0,12.0,82,1.14,,,-99.99,,2013-03-16 04:23:00,
2013-03-16 00:33:00,41.0,36.0,-100.00,SSE,160,0.0,12.0,85,1.14,,,-99.99,,2013-03-16 04:33:00,
2013-03-16 00:43:00,41.0,37.0,-100.00,West,272,0.0,12.0,86,0.00,,,-99.99,,2013-03-16 04:43:00,
2013-03-16 00:52:00,41.0,37.0,-100.00,South,184,1.0,12.0,88,0.00,,,-99.99,,2013-03-16 04:52:00,
2013-03-16 01:02:00,41.0,36.0,-100.00,NW,314,0.0,12.0,88,10.79,,,-99.99,,2013-03-16 05:02:00,
2013-03-16 01:12:00,41.0,37.0,-100.00,South,172,0.0,12.0,89,2.83,,,-99.99,,2013-03-16 05:12:00,
2013-03-16 01:22:00,40.0,36.0,-100.00,WNW,299,0.0,12.0,89,2.83,,,-99.99,,2013-03-16 05:22:00,
2013-03-16 01:32:00,40.0,36.0,-100.00,South,186,0.0,12.0,90,6.22,,,-99.99,,2013-03-16 05:32:00,
2013-03-16 01:42:00,39.0,36.0,-100.00,South,177,0.0,12.0,90,1.14,,,-99.99,,2013-03-16 05:42:00,
2013-03-16 01:52:00,41.0,37.0,-100.00,South,173,0.0,12.0,90,4.53,,,-99.99,,2013-03-16 05:52:00,
2013-03-16 02:02:00,40.0,37.0,-100.00,SSE,168,0.0,12.0,91,0.00,,,-99.99,,2013-03-16 06:02:00,
2013-03-16 02:12:00,40.0,37.0,-100.00,ESE,110,0.0,12.0,91,0.00,,,-99.99,,2013-03-16 06:12:00,
2013-03-16 02:22:00,40.0,37.0,-100.00,SE,125,0.0,12.0,91,0.00,,,-99.99,,2013-03-16 06:22:00,
2013-03-16 02:32:00,40.0,36.0,-100.00,SSE,148,0.0,12.0,91,4.53,,,-99.99,,2013-03-16 06:32:00,
2013-03-16 02:42:00,39.0,36.0,-100.00,ESE,108,0.0,12.0,91,0.00,,,-99.99,,2013-03-16 06:42:00,
2013-03-16 02:52:00,40.0,37.0,-100.00,ESE,121,0.0,12.0,93,0.00,,,-99.99,,2013-03-16 06:52:00,
2013-03-16 03:02:00,40.0,37.0,-100.00,East,101,0.0,12.0,93,0.00,,,-99.99,,2013-03-16 07:02:00,
2013-03-16 03:12:00,40.0,37.0,-100.00,East,101,0.0,12.0,93,0.00,,,-99.99,,2013-03-16 07:12:00,
2013-03-16 03:22:00,40.0,37.0,-100.00,SE,128,0.0,12.0,93,0.00,,,-99.99,,2013-03-16 07:22:00,
2013-03-16 03:32:00,40.0,37.0,-100.00,East,97,0.0,12.0,93,0.00,,,-99.99,,2013-03-16 07:32:00,
2013-03-16 03:42:00,39.0,37.0,-100.00,East,90,0.0,12.0,94,0.00,,,-99.99,,2013-03-16 07:42:00,
2013-03-16 03:52:00,40.0,37.0,-100.00,East,91,0.0,12.0,94,0.00,,,-99.99,,2013-03-16 07:52:00,
2013-03-16 04:03:00,40.0,37.0,-100.00,ESE,121,0.0,12.0,94,0.00,,,-99.99,,2013-03-16 08:03:00,
2013-03-16 04:12:00,40.0,37.0,-100.00,ESE,110,1.0,12.0,94,0.00,,,-99.99,,2013-03-16 08:12:00,
2013-03-16 04:23:00,39.0,37.0,-100.00,ESE,105,0.0,12.0,94,0.00,,,-99.99,,2013-03-16 08:23:00,
2013-03-16 04:33:00,39.0,37.0,-100.00,East,96,0.0,12.0,94,0.00,,,-99.99,,2013-03-16 08:33:00,
2013-03-16 04:42:00,39.0,37.0,-100.00,East,100,1.0,12.0,95,0.00,,,-99.99,,2013-03-16 08:42:00,
2013-03-16 04:52:00,39.0,37.0,-100.00,ESE,114,1.0,12.0,94,0.00,,,-99.99,,2013-03-16 08:52:00,
2013-03-16 05:02:00,40.0,37.0,-100.00,East,96,1.0,1.0,94,0.00,,,-99.99,,2013-03-16 09:02:00,
2013-03-16 05:12:00,40.0,37.0,-100.00,SSW,207,2.0,2.0,95,0.00,,,-99.99,,2013-03-16 09:12:00,
2013-03-16 05:22:00,40.0,37.0,-100.00,SSE,151,1.0,2.0,94,0.00,,,-99.99,,2013-03-16 09:22:00,
2013-03-16 05:33:00,41.0,39.0,-100.00,SSW,192,1.0,2.0,95,0.00,,,-99.99,,2013-03-16 09:33:00,
2013-03-16 05:42:00,40.0,37.0,-100.00,NW,319,0.0,2.0,95,0.00,,,-99.99,,2013-03-16 09:42:00,
2013-03-16 05:52:00,39.0,37.0,-100.00,East,83,1.0,2.0,95,0.00,,,-99.99,,2013-03-16 09:52:00,
2013-03-16 06:03:00,41.0,39.0,-100.00,East,91,1.0,2.0,95,0.00,,,-99.99,,2013-03-16 10:03:00,
2013-03-16 06:12:00,41.0,39.0,-100.00,SE,136,0.0,2.0,95,0.00,,,-99.99,,2013-03-16 10:12:00,
2013-03-16 06:23:00,41.0,39.0,-100.00,ESE,103,1.0,2.0,97,0.00,,,-99.99,,2013-03-16 10:23:00,
2013-03-16 06:32:00,42.0,39.0,-100.00,East,101,0.0,2.0,97,0.00,,,-99.99,,2013-03-16 10:32:00,
2013-03-16 06:42:00,41.0,39.0,-100.00,ESE,117,0.0,2.0,97,0.00,,,-99.99,,2013-03-16 10:42:00,
2013-03-16 06:52:00,42.0,41.0,-100.00,ESE,121,1.0,2.0,97,0.00,,,-99.99,,2013-03-16 10:52:00,
2013-03-16 07:03:00,41.0,39.0,-100.00,East,93,1.0,2.0,97,0.00,,,-99.99,,2013-03-16 11:03:00,
2013-03-16 07:12:00,42.0,39.0,-100.00,ESE,104,1.0,2.0,95,0.00,,,-99.99,,2013-03-16 11:12:00,
2013-03-16 07:22:00,40.0,37.0,-100.00,East,83,0.0,2.0,95,0.00,,,-99.99,,2013-03-16 11:22:00,
2013-03-16 07:32:00,41.0,39.0,-100.00,SE,136,0.0,2.0,95,0.00,,,-99.99,,2013-03-16 11:32:00,
2013-03-16 07:43:00,40.0,37.0,-100.00,ESE,105,0.0,2.0,95,0.00,,,-99.99,,2013-03-16 11:43:00,
2013-03-16 07:52:00,40.0,37.0,-100.00,East,100,0.0,2.0,95,0.00,,,-99.99,,2013-03-16 11:52:00,
2013-03-16 08:02:00,42.0,41.0,-100.00,SE,139,0.0,2.0,97,0.00,,,-99.99,,2013-03-16 12:02:00,
2013-03-16 08:12:00,40.0,37.0,-100.00,East,94,0.0,2.0,95,0.00,,,-99.99,,2013-03-16 12:12:00,
2013-03-16 08:22:00,40.0,37.0,-100.00,SE,127,0.0,2.0,95,0.00,,,-99.99,,2013-03-16 12:22:00,
2013-03-16 08:32:00,40.0,37.0,-100.00,East,94,0.0,2.0,95,0.00,,,-99.99,,2013-03-16 12:32:00,
2013-03-16 08:42:00,42.0,41.0,-100.00,East,79,1.0,2.0,97,0.00,,,-99.99,,2013-03-16 12:42:00,
2013-03-16 08:52:00,40.0,37.0,-100.00,East,91,0.0,2.0,95,0.00,,,-99.99,,2013-03-16 12:52:00,
2013-03-16 09:02:00,42.0,41.0,-100.00,East,97,1.0,2.0,97,0.00,,,-99.99,,2013-03-16 13:02:00,
2013-03-16 09:12:00,40.0,37.0,-100.00,East,94,1.0,2.0,95,0.00,,,-99.99,,2013-03-16 13:12:00,
2013-03-16 09:22:00,43.0,41.0,-100.00,SE,146,1.0,2.0,97,0.00,,,-99.99,,2013-03-16 13:22:00,
2013-03-16 09:32:00,41.0,39.0,-100.00,SE,134,1.0,2.0,95,0.00,,,-99.99,,2013-03-16 13:32:00,
2013-03-16 09:42:00,43.0,41.0,-100.00,East,86,0.0,2.0,97,0.00,,,-99.99,,2013-03-16 13:42:00,
2013-03-16 09:52:00,43.0,41.0,-100.00,ENE,69,0.0,2.0,97,0.00,,,-99.99,,2013-03-16 13:52:00,
2013-03-16 10:03:00,42.0,39.0,-100.00,East,94,1.0,2.0,94,0.00,,,-99.99,,2013-03-16 14:03:00,
2013-03-16 10:12:00,43.0,41.0,-100.00,NE,55,0.0,2.0,95,0.00,,,-99.99,,2013-03-16 14:12:00,
2013-03-16 10:22:00,43.0,41.0,-100.00,ENE,69,1.0,2.0,94,0.00,,,-99.99,,2013-03-16 14:22:00,
2013-03-16 10:32:00,43.0,41.0,-100.00,ESE,103,1.0,2.0,94,0.00,,,-99.99,,2013-03-16 14:32:00,
2013-03-16 10:42:00,43.0,41.0,-100.00,ENE,60,1.0,2.0,94,0.00,,,-99.99,,2013-03-16 14:42:00,
2013-03-16 10:52:00,43.0,41.0,-100.00,ENE,77,0.0,2.0,94,0.00,,,-99.99,,2013-03-16 14:52:00,
2013-03-16 11:03:00,43.0,41.0,-100.00,SE,136,0.0,2.0,94,0.00,,,-99.99,,2013-03-16 15:03:00,
2013-03-16 11:13:00,44.0,41.0,-100.00,ENE,76,1.0,2.0,93,0.00,,,-99.99,,2013-03-16 15:13:00,
2013-03-16 11:23:00,44.0,41.0,-100.00,NE,43,0.0,2.0,93,0.00,,,-99.99,,2013-03-16 15:23:00,
2013-03-16 11:33:00,44.0,41.0,-100.00,East,79,1.0,2.0,91,0.00,,,-99.99,,2013-03-16 15:33:00,
2013-03-16 11:43:00,45.0,41.0,-100.00,NE,55,2.0,2.0,91,0.00,,,-99.99,,2013-03-16 15:43:00,
2013-03-16 11:53:00,45.0,43.0,-100.00,ENE,76,1.0,2.0,91,0.00,,,-99.99,,2013-03-16 15:53:00,
2013-03-16 12:03:00,45.0,41.0,-100.00,North,1,1.0,2.0,89,0.00,,,-99.99,,2013-03-16 16:03:00,
2013-03-16 12:13:00,46.0,43.0,-100.00,NE,42,1.0,2.0,89,0.00,,,-99.99,,2013-03-16 16:13:00,
2013-03-16 12:23:00,46.0,43.0,-100.00,SE,146,1.0,2.0,88,0.00,,,-99.99,,2013-03-16 16:23:00,
2013-03-16 12:33:00,47.0,41.0,-100.00,NW,320,1.0,2.0,86,0.00,,,-99.99,,2013-03-16 16:33:00,
2013-03-16 12:42:00,46.0,41.0,-100.00,North,351,0.0,2.0,86,0.00,,,-99.99,,2013-03-16 16:42:00,
2013-03-16 12:53:00,47.0,43.0,-100.00,SSE,155,0.0,2.0,86,0.00,,,-99.99,,2013-03-16 16:53:00,
2013-03-16 13:03:00,47.0,41.0,-100.00,NW,320,1.0,2.0,84,0.00,,,-99.99,,2013-03-16 17:03:00,
2013-03-16 13:13:00,49.0,43.0,-100.00,SSE,151,0.0,2.0,84,0.00,,,-99.99,,2013-03-16 17:13:00,
2013-03-16 13:23:00,49.0,43.0,-100.00,WNW,286,0.0,2.0,82,0.00,,,-99.99,,2013-03-16 17:23:00,
2013-03-16 13:33:00,49.0,43.0,-100.00,West,265,2.0,2.0,81,0.00,,,-99.99,,2013-03-16 17:33:00,
2013-03-16 13:42:00,49.0,43.0,-100.00,WNW,282,2.0,2.0,82,0.00,,,-99.99,,2013-03-16 17:42:00,
2013-03-16 13:52:00,50.0,43.0,-100.00,WNW,295,2.0,4.0,81,0.00,,,-99.99,,2013-03-16 17:52:00,
2013-03-16 14:02:00,49.0,43.0,-100.00,North,352,4.0,6.0,81,0.00,,,-99.99,,2013-03-16 18:02:00,
2013-03-16 14:13:00,49.0,43.0,-100.00,NNW,348,4.0,6.0,81,0.00,,,-99.99,,2013-03-16 18:13:00,
2013-03-16 14:23:00,49.0,43.0,-100.00,NW,314,2.0,6.0,81,0.00,,,-99.99,,2013-03-16 18:23:00,
2013-03-16 14:33:00,49.0,43.0,-100.00,WNW,283,4.0,6.0,81,0.00,,,-99.99,,2013-03-16 18:33:00,
2013-03-16 14:43:00,47.0,41.0,-100.00,NNW,348,4.0,6.0,82,0.00,,,-99.99,,2013-03-16 18:43:00,
2013-03-16 14:52:00,48.0,41.0,-100.00,NW,319,3.0,6.0,82,0.00,,,-99.99,,2013-03-16 18:52:00,
2013-03-16 15:02:00,49.0,43.0,-100.00,NNW,345,1.0,6.0,81,0.00,,,-99.99,,2013-03-16 19:02:00,
2013-03-16 15:12:00,49.0,43.0,-100.00,ENE,57,2.0,6.0,81,0.00,,,-99.99,,2013-03-16 19:12:00,
2013-03-16 15:22:00,48.0,41.0,-100.00,North,351,3.0,6.0,81,0.00,,,-99.99,,2013-03-16 19:22:00,
2013-03-16 15:33:00,48.0,43.0,-100.00,NW,319,2.0,6.0,82,0.00,,,-99.99,,2013-03-16 19:33:00,
2013-03-16 15:42:00,46.0,39.0,-100.00,NNW,333,3.0,6.0,82,0.00,,,-99.99,,2013-03-16 19:42:00,
2013-03-16 15:52:00,46.0,41.0,-100.00,NW,321,3.0,6.0,84,0.00,,,-99.99,,2013-03-16 19:52:00,
2013-03-16 16:02:00,47.0,41.0,-100.00,NNW,348,3.0,6.0,82,0.00,,,-99.99,,2013-03-16 20:02:00,
2013-03-16 16:12:00,47.0,41.0,-100.00,NW,314,4.0,6.0,81,0.00,,,-99.99,,2013-03-16 20:12:00,
2013-03-16 16:22:00,47.0,41.0,-100.00,West,278,5.0,6.0,81,0.00,,,-99.99,,2013-03-16 20:22:00,
2013-03-16 16:33:00,47.0,39.0,-100.00,WNW,283,3.0,6.0,80,0.00,,,-99.99,,2013-03-16 20:33:00,
2013-03-16 16:42:00,47.0,41.0,-100.00,NNW,328,4.0,6.0,80,0.00,,,-99.99,,2013-03-16 20:42:00,
2013-03-16 16:52:00,47.0,39.0,-100.00,NNW,344,6.0,8.0,78,0.00,,,-99.99,,2013-03-16 20:52:00,
2013-03-16 17:02:00,46.0,39.0,-100.00,North,352,7.0,8.0,80,0.00,,,-99.99,,2013-03-16 21:02:00,
2013-03-16 17:12:00,45.0,39.0,-100.00,NNW,328,5.0,8.0,81,0.00,,,-99.99,,2013-03-16 21:12:00,
2013-03-16 17:23:00,44.0,39.0,-100.00,NNW,348,5.0,8.0,84,0.00,,,-99.99,,2013-03-16 21:23:00,
2013-03-16 17:33:00,44.0,37.0,-100.00,NW,326,6.0,8.0,82,0.00,,,-99.99,,2013-03-16 21:33:00,
2013-03-16 17:43:00,43.0,37.0,-100.00,NW,323,7.0,8.0,84,0.00,,,-99.99,,2013-03-16 21:43:00,
2013-03-16 17:52:00,43.0,37.0,-100.00,NW,323,8.0,12.0,85,0.00,,,-99.99,,2013-03-16 21:52:00,
2013-03-16 18:03:00,41.0,36.0,-100.00,WNW,292,7.0,12.0,86,0.00,,,-99.99,,2013-03-16 22:03:00,
2013-03-16 18:13:00,41.0,36.0,-100.00,NNW,338,5.0,12.0,86,0.00,,,-99.99,,2013-03-16 22:13:00,
2013-03-16 18:23:00,40.0,36.0,-100.00,NNW,336,4.0,12.0,88,0.00,,,-99.99,,2013-03-16 22:23:00,
2013-03-16 18:33:00,40.0,36.0,-100.00,NW,320,4.0,12.0,89,0.00,,,-99.99,,2013-03-16 22:33:00,
2013-03-16 18:42:00,39.0,36.0,-100.00,NW,309,4.0,12.0,90,0.00,,,-99.99,,2013-03-16 22:42:00,
2013-03-16 18:52:00,38.0,36.0,-100.00,NW,320,5.0,12.0,90,0.00,,,-99.99,,2013-03-16 22:52:00,
2013-03-16 19:02:00,38.0,34.0,-100.00,NNW,348,3.0,12.0,90,0.00,,,-99.99,,2013-03-16 23:02:00,
2013-03-16 19:13:00,39.0,36.0,-100.00,NNW,340,2.0,12.0,90,0.00,,,-99.99,,2013-03-16 23:13:00,
2013-03-16 19:23:00,40.0,36.0,-100.00,WNW,296,2.0,12.0,89,0.00,,,-99.99,,2013-03-16 23:23:00,
2013-03-16 19:33:00,37.0,32.0,-100.00,NW,317,2.0,12.0,86,0.00,,,-99.99,,2013-03-16 23:33:00,
2013-03-16 19:42:00,37.0,32.0,-100.00,NNW,328,4.0,12.0,84,0.00,,,-99.99,,2013-03-16 23:42:00,
2013-03-16 19:52:00,37.0,32.0,-100.00,SW,228,8.0,12.0,85,0.00,,,-99.99,,2013-03-16 23:52:00,
2013-03-16 20:02:00,36.0,32.0,-100.00,North,352,6.0,12.0,82,0.00,,,-99.99,,2013-03-17 00:02:00,
2013-03-16 20:12:00,35.0,32.0,-100.00,NNW,331,4.0,12.0,84,0.00,,,-99.99,,2013-03-17 00:12:00,
2013-03-16 20:23:00,34.0,32.0,-100.00,NW,321,4.0,12.0,85,0.00,,,-99.99,,2013-03-17 00:23:00,
2013-03-16 20:33:00,36.0,32.0,-100.00,NW,326,6.0,12.0,86,0.00,,,-99.99,,2013-03-17 00:33:00,
2013-03-16 20:42:00,36.0,32.0,-100.00,NNW,348,3.0,12.0,88,0.00,,,-99.99,,2013-03-17 00:42:00,
2013-03-16 20:52:00,34.0,32.0,-100.00,NNW,340,5.0,12.0,88,0.00,,,-99.99,,2013-03-17 00:52:00,
2013-03-16 21:02:00,32.0,30.0,-100.00,North,360,4.0,12.0,88,0.00,,,-99.99,,2013-03-17 01:02:00,
2013-03-16 21:12:00,35.0,32.0,-100.00,NNW,331,4.0,12.0,89,0.00,,,-99.99,,2013-03-17 01:12:00,
2013-03-16 21:22:00,34.0,32.0,-100.00,NNW,341,2.0,12.0,88,0.00,,,-99.99,,2013-03-17 01:22:00,
2013-03-16 21:32:00,35.0,32.0,-100.00,North,5,2.0,12.0,89,0.00,,,-99.99,,2013-03-17 01:32:00,
2013-03-16 21:42:00,36.0,32.0,-100.00,NW,326,1.0,12.0,88,0.00,,,-99.99,,2013-03-17 01:42:00,
2013-03-16 21:52:00,34.0,30.0,-100.00,North,351,1.0,12.0,86,0.00,,,-99.99,,2013-03-17 01:52:00,
2013-03-16 22:03:00,34.0,32.0,-100.00,NE,38,2.0,12.0,86,0.00,,,-99.99,,2013-03-17 02:03:00,
2013-03-16 22:13:00,36.0,32.0,-100.00,NNE,16,1.0,12.0,86,0.00,,,-99.99,,2013-03-17 02:13:00,
2013-03-16 22:23:00,34.0,30.0,-100.00,North,360,2.0,12.0,85,0.00,,,-99.99,,2013-03-17 02:23:00,
2013-03-16 22:33:00,35.0,32.0,-100.00,ENE,73,1.0,12.0,86,0.00,,,-99.99,,2013-03-17 02:33:00,
2013-03-16 22:43:00,35.0,32.0,-100.00,NNW,327,2.0,12.0,86,0.00,,,-99.99,,2013-03-17 02:43:00,
2013-03-16 22:52:00,33.0,30.0,-100.00,North,0,2.0,12.0,85,0.00,,,-99.99,,2013-03-17 02:52:00,
2013-03-16 23:03:00,35.0,32.0,-100.00,North,7,1.0,12.0,86,0.00,,,-99.99,,2013-03-17 03:03:00,
2013-03-16 23:12:00,35.0,32.0,-100.00,NNW,348,2.0,12.0,86,0.00,,,-99.99,,2013-03-17 03:12:00,
2013-03-16 23:23:00,33.0,30.0,-100.00,NE,36,2.0,12.0,85,0.00,,,-99.99,,2013-03-17 03:23:00,
2013-03-16 23:34:00,33.0,30.0,-100.00,ENE,57,1.0,12.0,86,0.00,,,-99.99,,2013-03-17 03:34:00,
2013-03-16 23:43:00,33.0,30.0,-100.00,NW,323,1.0,12.0,86,0.00,,,-99.99,,2013-03-17 03:43:00,
2013-03-16 23:52:00,34.0,32.0,-100.00,NNW,330,1.0,12.0,86,0.00,,,-99.99,,2013-03-17 03:52:00,